Terminal Aerodrome Forecast
Issued by NWS Shreveport, LA

Home | Current Version | Previous Version | Text Only | Print | Product List | Glossary On
Versions: 1 2 3 4 5 6 7 8 9 10 11 12 13 14 15 16 17 18
000
FTUS44 KSHV 182300
TAFTXK
TAF
KTXK 182332Z 1900/1924 VRB03KT P6SM SCT250
     FM190600 00000KT 5SM BR SCT250
      TEMPO 1910/1912 2SM BR
     FM191500 10005KT P6SM SCT035=

USA.gov is the U.S. government's official web portal to all federal, state and local government web resources and services.